La Junta, CO

7:43 PM MDT on April 25, 2017 (GMT -0600)
La Junta Municipal

Weather History for KLHX - January, 2013

Change the Weather History Date:

Wednesday, January 23, 2013

  Actual Average Record
Temperature  
Mean Temperature 46 °F 31 °F  
Max Temperature 75 °F 45 °F 75 °F (1972)
Min Temperature 17 °F 17 °F -8 °F (1963)
Degree Days  
Heating Degree Days 19 34  
Month to date heating degree days 781 786  
Since 1 July heating degree days 2723 2989  
Cooling Degree Days 0 0  
Month to date cooling degree days 0 0  
Year to date cooling degree days 0 0  
Moisture  
Dew Point -4 °F    
Average Humidity 30    
Maximum Humidity 58    
Minimum Humidity 2    
Precipitation  
Precipitation 0.00 in 0.01 in 0.09 in (1978)
Month to date precipitation T  
Year to date precipitation T  
Sea Level Pressure  
Sea Level Pressure 30.14 in    
Wind  
Wind Speed 10 mph (West)    
Max Wind Speed 21 mph    
Max Gust Speed 25 mph    
Visibility 10 miles    
Events      
T = Trace of Precipitation, MM = Missing Value Source: NWS Daily Summary

Daily Weather History Graph

Daily Weather History Graph

Search for Another Location

Airport or City:

Trip Planner

Search our weather history database for the weather conditions in past years. The results will help you decide how hot, cold, wet, or windy it might be!

Date:

Astronomy

Jan. 23, 2013 Rise Set
Actual Time 7:04 AM MST 5:07 PM MST
Civil Twilight 6:36 AM MST 5:35 PM MST
Nautical Twilight 6:04 AM MST 6:07 PM MST
Astronomical Twilight 5:33 AM MST 6:38 PM MST
Moon 2:20 PM MST (1/23) 4:17 AM MST (1/23)
Length of Visible Light 10h 59m
Length of Day
10h 02m
Waxing Gibbous, 89% of the Moon is Illuminated
Jan 23
Waxing Gibbous
Jan 26
Full
Feb 3
Last Quarter
Feb 10
New
Feb 17
First Quarter

Hourly Weather History & Observations

Time (MST) Temp. Windchill Dew Point Humidity Pressure Visibility Wind Dir Wind Speed Gust Speed Precip Events Conditions
12:53 AM 21.0 °F 12.4 °F -2.0 °F 36% 30.16 in 10.0 mi WSW 6.9 mph - N/A   Clear
1:53 AM 19.9 °F 11.1 °F -2.9 °F 37% 30.17 in 10.0 mi West 6.9 mph - N/A   Clear
2:53 AM 19.9 °F 11.1 °F -5.1 °F 33% 30.16 in 10.0 mi WSW 6.9 mph - N/A   Clear
3:53 AM 25.0 °F 14.2 °F -4.0 °F 28% 30.14 in 10.0 mi WSW 11.5 mph - N/A   Clear
4:53 AM 21.9 °F 10.4 °F -5.1 °F 30% 30.17 in 10.0 mi West 11.5 mph - N/A   Clear
5:53 AM 19.9 °F 6.7 °F -5.1 °F 33% 30.20 in 10.0 mi West 13.8 mph - N/A   Clear
6:53 AM 18.0 °F 5.4 °F -6.0 °F 35% 30.23 in 10.0 mi West 11.5 mph - N/A   Clear
7:53 AM 24.1 °F 12.5 °F -6.0 °F 27% 30.23 in 10.0 mi West 12.7 mph - N/A   Clear
8:53 AM 32.0 °F - -5.1 °F 20% 30.23 in 10.0 mi Calm Calm - N/A   Clear
9:53 AM 39.9 °F 36.7 °F -6.0 °F 14% 30.22 in 10.0 mi West 4.6 mph - N/A   Clear
10:53 AM 54.0 °F - -4.0 °F 9% 30.17 in 10.0 mi West 9.2 mph - N/A   Clear
11:53 AM 64.9 °F - -6.0 °F 6% 30.10 in 10.0 mi WSW 10.4 mph - N/A   Clear
12:53 PM 69.1 °F - -9.0 °F 4% 30.06 in 10.0 mi WNW 9.2 mph - N/A   Clear
1:53 PM 72.0 °F - -18.0 °F 4% 30.03 in 10.0 mi WSW 11.5 mph - N/A   Clear
2:53 PM 75.0 °F - -22.0 °F 4% 30.02 in 10.0 mi West 6.9 mph - N/A   Clear
3:53 PM 73.0 °F - -17.0 °F 4% 30.01 in 10.0 mi NNE 3.5 mph - N/A   Clear
4:53 PM 57.0 °F - -6.0 °F 8% 30.06 in 10.0 mi ENE 12.7 mph - N/A   Clear
5:53 PM 51.1 °F - -5.1 °F 10% 30.11 in 10.0 mi East 6.9 mph - N/A   Clear
6:53 PM 46.0 °F 40.6 °F -5.1 °F 12% 30.15 in 10.0 mi East 11.5 mph - N/A   Clear
7:53 PM 42.1 °F 35.2 °F -0.0 °F 17% 30.16 in 10.0 mi East 12.7 mph - N/A   Clear
8:53 PM 37.9 °F 30.5 °F 14.0 °F 38% 30.17 in 10.0 mi East 11.5 mph - N/A   Clear
10:53 PM 30.9 °F 19.8 °F 18.0 °F 59% 30.19 in 10.0 mi East 16.1 mph - N/A   Clear
11:53 PM 28.0 °F 17.0 °F 18.0 °F 66% 30.18 in 10.0 mi ENE 13.8 mph - N/A   Clear